flux

Flag for Austria Weather past 2 weeks in Enns, Upper Austria, Austria

Now
53 °F

Overcast.


Feels Like: 50 °F
Forecast: 35 / 64 °F
Wind: 9 mph from West

Location: Linz / Hoersching-Flughafen

Current Time: Sep 23, 2014 at 1:01:10 PM

Latest Report: Sep 23, 2014 at 12:00 PM


Visibility: 14 mi

Pressure: 30.17 "Hg

Humidity: 75%

Dew point: 45 °F

Location of EnnsLocation

Historic Weather in Enns — Graph

°F

Enns temperature yesterday

Maximum temperature yesterday: 59 °F (at 12:00 AM)
Minimum temperature yesterday: 48 °F (at 9:00 PM)
Average temperature yesterday: 55 °F

Past Weeks' High & Low Weather Summary

 TemperatureHumidityPressure
High79 °F (Sep 8, 5:00 PM)100% (Sep 20, 5:00 AM)30.17 "Hg (Sep 20, 5:00 AM)
Low47 °F (Sep 23, 1:00 AM)43% (Sep 17, 5:00 PM)29.87 "Hg (Sep 22, 1:00 AM)
Average60 °F81%29.99 "Hg
* Reported Sep 8 11:00 AM — Sep 23 11:00 AM, Enns, Weather by CustomWeather, © 2014

Note: Actual official high and low records may vary slightly from our data, if they occured in-between our weather recording intervals... More about our weather records

Advertising

Enns weather history for previous 24 hours

 ConditionsComfort  
Time TempWeatherWind HumidityBarometerVisibility
11:00 AM
Sep 23
51 °FOvercast.9 mph80%30.17 "Hg9 mi
10:00 AM50 °FOvercast.9 mph82%30.16 "Hg12 mi
9:00 AM49 °FOvercast.9 mph83%30.14 "Hg9 mi
8:00 AM48 °FOvercast.8 mph85%30.11 "Hg8 mi
7:00 AM48 °FOvercast.9 mph86%30.09 "Hg6 mi
6:00 AM48 °FRain showers. Overcast.7 mph85%30.08 "Hg8 mi
5:00 AM48 °FOvercast.9 mph85%30.07 "Hg7 mi
4:00 AM47 °FLow clouds.8 mph87%30.06 "Hg9 mi
3:00 AM48 °FLight rain. Overcast.9 mph85%30.07 "Hg7 mi
2:00 AM48 °FOvercast.8 mph84%30.08 "Hg14 mi
1:00 AM47 °FOvercast.7 mph85%30.08 "Hg11 mi
12:00 AMN/APassing clouds.10 mphN/AN/A2 mi
11:00 PM
Sep 22
48 °FOvercast.9 mph86%30.06 "Hg13 mi
10:00 PM48 °FSprinkles. Overcast.7 mph88%30.05 "Hg6 mi
9:00 PM48 °FOvercast.8 mph85%30.03 "Hg15 mi
8:00 PM48 °FPassing clouds.5 mph83%30.00 "Hg28 mi
7:00 PM52 °FOvercast.3 mph81%29.97 "Hg9 mi
6:00 PM53 °FPartly sunny.7 mph68%29.96 "Hg25 mi
5:00 PM55 °FOvercast.13 mph63%29.96 "Hg22 mi
4:00 PMN/APassing clouds.14 mphN/AN/A9 mi
2:00 PM56 °FPartly sunny.9 mph69%29.96 "Hg19 mi
1:00 PM58 °FPartly sunny.10 mph66%29.97 "Hg12 mi
Weather by CustomWeather, © 2014

See weather overviewHow to use our weather pages